Gonzales Roger M. Dreyer Memo, TX

4:27 AM CST on December 10, 2019 (GMT -0600)
Gonzales Roger M. Dreyer Memo

Weather History for KT20 - November, 2019

Change the Weather History Date:

Tuesday, November 19, 2019

  Actual Average (KVCT) Record (KVCT)
Temperature  
Mean Temperature 61 °F -  
Max Temperature 77 °F 73 °F 87 °F (1988)
Min Temperature 45 °F 53 °F 30 °F (1959)
Degree Days  
Heating Degree Days 4    
Growing Degree Days 11 (Base 50)    
Moisture  
Dew Point 56 °F    
Average Humidity 86    
Maximum Humidity 100    
Minimum Humidity 49    
Precipitation  
Precipitation 0.00 in - - ()
Sea Level Pressure  
Sea Level Pressure 29.97 in    
Wind  
Wind Speed 2 mph (SSE)    
Max Wind Speed 9 mph    
Max Gust Speed -    
Visibility 6 miles    
Events Fog    
Averages and records for this station are not official NWS values.
T = Trace of Precipitation, MM = Missing Value Source: NWS Daily Summary

Daily Weather History Graph

Daily Weather History Graph

Search for Another Location

Airport or City:

Astronomy

Nov. 19, 2019 Rise Set
Actual Time 6:57 AM CST 5:32 PM CST
Civil Twilight 6:31 AM CST 5:58 PM CST
Nautical Twilight 6:02 AM CST 6:27 PM CST
Astronomical Twilight 5:34 AM CST 6:55 PM CST
Moon No Moon Rise 1:11 PM CST (11/19)
Length of Visible Light 11h 26m
Length of Day
10h 35m
Waning Gibbous, 51% of the Moon is Illuminated
Nov 19
Waning Gibbous
Nov 19
Last Quarter
Nov 26
New
Dec 4
First Quarter
Dec 11
Full

Hourly Weather History & Observations

Time (CST) Temp. Dew Point Humidity Pressure Visibility Wind Dir Wind Speed Gust Speed Precip Events Conditions
12:15 AM 52.0 °F 50.7 °F 95% 29.97 in 10.0 mi Calm Calm - N/A   Clear
12:35 AM 52.7 °F 51.8 °F 97% 29.96 in 10.0 mi Calm Calm - N/A   Clear
12:55 AM 52.2 °F 51.3 °F 97% 29.96 in 7.0 mi Calm Calm - N/A   Clear
1:15 AM 51.8 °F 51.3 °F 98% 29.96 in 7.0 mi Calm Calm - N/A   Clear
1:35 AM 50.2 °F 50.0 °F 99% 29.95 in 3.0 mi Calm Calm - N/A   Clear
1:55 AM 48.4 °F 48.2 °F 99% 29.95 in 1.5 mi Calm Calm - N/A   Mist
2:15 AM 48.4 °F 48.4 °F 100% 29.95 in 0.8 mi Calm Calm - N/A   Mostly Cloudy
2:55 AM 47.5 °F 47.5 °F 100% 29.96 in 5.0 mi Calm Calm - N/A   Clear
3:15 AM 47.3 °F 47.3 °F 100% 29.96 in 1.2 mi Calm Calm - N/A   Scattered Clouds
3:35 AM 47.5 °F 47.5 °F 100% 29.96 in 3.0 mi Calm Calm - N/A   Clear
3:55 AM 46.4 °F 46.4 °F 100% 29.97 in 1.2 mi Calm Calm - N/A   Mist
4:15 AM 47.7 °F 47.7 °F 100% 29.98 in 1.2 mi Calm Calm - N/A   Mist
4:35 AM 50.4 °F 50.4 °F 100% 29.97 in 2.0 mi Calm Calm - N/A   Clear
4:55 AM 49.3 °F 49.3 °F 100% 29.97 in 0.5 mi Calm Calm - N/A Fog Fog
5:35 AM 46.6 °F 46.6 °F 100% 29.97 in 0.2 mi Calm Calm - N/A Fog Fog
5:55 AM 45.5 °F 45.5 °F 100% 29.98 in 0.2 mi Calm Calm - N/A Fog Fog
6:15 AM 45.5 °F 45.5 °F 100% 29.99 in 1.2 mi Calm Calm - N/A   Overcast
6:35 AM 47.3 °F 47.3 °F 100% 29.99 in 0.2 mi Calm Calm - N/A Fog Fog
6:55 AM 48.6 °F 48.6 °F 100% 30.00 in 0.2 mi Calm Calm - N/A Fog Fog
7:15 AM 50.2 °F 50.2 °F 100% 30.00 in 0.2 mi Calm Calm - N/A Fog Fog
7:35 AM 51.3 °F 51.3 °F 100% 30.01 in 0.2 mi Calm Calm - N/A Fog Fog
7:55 AM 52.3 °F 52.3 °F 100% 30.01 in 0.2 mi Calm Calm - N/A Fog Fog
8:15 AM 53.2 °F 53.2 °F 100% 30.02 in 0.2 mi Calm Calm - N/A Fog Fog
8:35 AM 54.3 °F 54.3 °F 100% 30.02 in 0.2 mi Calm Calm - N/A Fog Fog
8:55 AM 55.4 °F 55.4 °F 100% 30.02 in 0.2 mi Calm Calm - N/A Fog Fog
9:15 AM 56.3 °F 56.3 °F 100% 30.02 in 0.2 mi NW 3.5 mph - N/A Fog Fog
9:35 AM 57.4 °F 57.4 °F 100% 30.03 in 0.2 mi Calm Calm - N/A Fog Fog
9:55 AM 58.5 °F 58.5 °F 100% 30.04 in 0.2 mi Calm Calm - N/A Fog Fog
10:15 AM 58.5 °F 58.5 °F 100% 30.04 in 0.2 mi Calm Calm - N/A Fog Fog
10:35 AM 60.1 °F 60.1 °F 100% 30.03 in 0.2 mi Calm Calm - N/A Fog Fog
10:55 AM 60.8 °F 60.8 °F 100% 30.03 in 2.5 mi North - - N/A   Overcast
11:15 AM 63.3 °F 63.3 °F 100% 30.02 in 7.0 mi SSW 3.5 mph - N/A   Scattered Clouds
11:35 AM 64.8 °F 64.6 °F 99% 30.02 in 10.0 mi North - - N/A   Clear
11:55 AM 66.9 °F 66.0 °F 97% 30.01 in 10.0 mi SSW 4.6 mph - N/A   Clear
12:15 PM 69.4 °F 65.8 °F 88% 30.00 in 10.0 mi South 9.2 mph - N/A   Clear
12:35 PM 73.0 °F 59.4 °F 62% 29.99 in 10.0 mi South 9.2 mph - N/A   Clear
12:55 PM 73.4 °F 59.2 °F 61% 29.99 in 10.0 mi SW 6.9 mph - N/A   Clear
1:15 PM 74.8 °F 59.0 °F 58% 29.97 in 10.0 mi South 9.2 mph - N/A   Clear
1:35 PM 75.6 °F 59.0 °F 56% 29.97 in 10.0 mi South 8.1 mph - N/A   Clear
1:55 PM 75.4 °F 59.0 °F 57% 29.96 in 10.0 mi South 6.9 mph - N/A   Clear
2:15 PM 76.8 °F 58.8 °F 54% 29.96 in 10.0 mi South 5.8 mph - N/A   Clear
2:35 PM 76.8 °F 57.4 °F 51% 29.95 in 10.0 mi SSE 8.1 mph - N/A   Clear
2:55 PM 77.2 °F 57.7 °F 51% 29.95 in 10.0 mi South 8.1 mph - N/A   Clear
3:15 PM 77.2 °F 57.0 °F 50% 29.94 in 10.0 mi SSE 8.1 mph - N/A   Clear
3:35 PM 77.5 °F 57.0 °F 49% 29.93 in 10.0 mi SSE 8.1 mph - N/A   Clear
3:55 PM 77.0 °F 56.7 °F 49% 29.93 in 10.0 mi SSE 8.1 mph - N/A   Clear
4:15 PM 76.5 °F 56.8 °F 51% 29.92 in 7.0 mi South 6.9 mph - N/A   Clear
4:35 PM 76.1 °F 57.4 °F 52% 29.92 in 10.0 mi South 6.9 mph - N/A   Clear
4:55 PM 75.2 °F 56.1 °F 51% 29.92 in 10.0 mi SSE 8.1 mph - N/A   Clear
5:35 PM 70.9 °F 55.4 °F 58% 29.93 in 10.0 mi SSE 4.6 mph - N/A   Clear
5:55 PM 68.9 °F 55.8 °F 63% 29.93 in 10.0 mi SE 4.6 mph - N/A   Clear
6:15 PM 68.4 °F 55.9 °F 64% 29.94 in 10.0 mi SE 5.8 mph - N/A   Clear
6:35 PM 68.0 °F 57.0 °F 68% 29.95 in 10.0 mi SE 5.8 mph - N/A   Clear
6:55 PM 66.7 °F 57.2 °F 71% 29.95 in 10.0 mi SE 5.8 mph - N/A   Clear
7:15 PM 65.7 °F 57.6 °F 75% 29.96 in 10.0 mi SE 6.9 mph - N/A   Clear
7:35 PM 64.8 °F 57.4 °F 77% 29.96 in 10.0 mi SE 6.9 mph - N/A   Clear
7:55 PM 64.4 °F 58.1 °F 80% 29.96 in 10.0 mi SE 8.1 mph - N/A   Clear
8:15 PM 64.2 °F 59.4 °F 84% 29.96 in 10.0 mi SE 6.9 mph - N/A   Clear
8:35 PM 63.9 °F 60.4 °F 89% 29.97 in 10.0 mi SE 6.9 mph - N/A   Clear
8:55 PM 64.2 °F 61.5 °F 91% 29.97 in 10.0 mi SE 6.9 mph - N/A   Scattered Clouds
9:15 PM 64.0 °F 62.2 °F 94% 29.97 in 10.0 mi SE 5.8 mph - N/A   Scattered Clouds
9:35 PM 64.2 °F 62.2 °F 93% 29.97 in 10.0 mi SE 8.1 mph - N/A   Mostly Cloudy
9:55 PM 63.5 °F 61.7 °F 94% 29.97 in 10.0 mi SE 8.1 mph - N/A   Scattered Clouds
10:15 PM 63.0 °F 61.7 °F 96% 29.97 in 10.0 mi SE 5.8 mph - N/A   Scattered Clouds
10:35 PM 63.0 °F 61.9 °F 96% 29.97 in 10.0 mi SE 4.6 mph - N/A   Mostly Cloudy
10:55 PM 62.8 °F 61.9 °F 97% 29.97 in 10.0 mi SE 4.6 mph - N/A   Mostly Cloudy
11:15 PM 62.6 °F 61.9 °F 97% 29.97 in 10.0 mi SE 4.6 mph - N/A   Mostly Cloudy
11:35 PM 63.7 °F 63.0 °F 97% 29.97 in 10.0 mi SE 4.6 mph - N/A   Overcast
11:55 PM 63.7 °F 63.0 °F 97% 29.97 in 10.0 mi SE 4.6 mph - N/A   Overcast